Find Starlink 11503

NORAD ID: 63142 Int'l Des: 2025-043 Owner: SPXS Country: US Constellation: starlink operational
LEOCIRCULAR

当前视图

正在加载3D地球...

About Starlink 11503

Starlink 11503 (NORAD 63142) is a starlink constellation satellite (v2 mini d2c) launched Mar 3, 2025 by SPXS of US. It operates in LEO, CIRCULAR orbit with a mass of 960.00 kg.

关于 Starlink 11503

正在加载描述...

即将过境

Passes for default location (London). Set your location on the main map for personalized predictions.

高度历史

Loading altitude history...

两行轨道根数

1 63142U 25043L 26170.91163645 .00175744 00000-0 13434-2 0 9996
2 63142 42.9998 354.1395 0001673 346.0539 14.0282 15.70855874 75375
Epoch: Jun 19, 2026 • Age: 5 hours

当前状态

高度 357.8 km
速度 7.70 km/s
星下点 30.82°N, 179.78°E
发射日期 Mar 3, 2025
运行时间 1.2 years
类型 internet

技术详情

分类 Payload
质量 960.00 kg
干质量 910.00 kg
总质量 960.00 kg
长度 0.30 m
直径 4.10 m
跨度 29.00 m
形状 Box + pan
制造商 SPXS
平台类型 Starlink V2MD
阶段状态 In Orbit
所有者/国家 SPXS/US

Most Searched